This is the latest recevied weather packets stored in our database for station/object WX1NWA. If no packets are shown the sender has not sent any weather packets the latest 10 day(s).
| Time | Temp. | Humidity | Pressure | Rain* | Wind** | Luminosity | Snow |
|---|---|---|---|---|---|---|---|
| 1777733134 | 15° C | 55% | 1022.8 hPa | 0 mm | - | 599 W/m² | - |
| 1777732831 | 14.44° C | 58% | 1022.7 hPa | 0 mm | - | 563 W/m² | - |
| 1777732528 | 14.44° C | 57% | 1022.8 hPa | 0 mm | - | 546 W/m² | - |
| 1777732226 | 14.44° C | 60% | 1022.8 hPa | 0 mm | - | 530 W/m² | - |
| 1777731923 | 13.89° C | 59% | 1022.7 hPa | 0 mm | - | 504 W/m² | - |
| 1777731619 | 13.89° C | 60% | 1022.5 hPa | 0 mm | - | 479 W/m² | - |
| 1777731317 | 12.78° C | 60% | 1022.4 hPa | 0 mm | - | 445 W/m² | - |
| 1777731014 | 13.33° C | 61% | 1022.4 hPa | 0 mm | - | 391 W/m² | - |
| 1777730713 | 13.33° C | 60% | 1022.6 hPa | 0 mm | - | 367 W/m² | - |
| 1777730409 | 13.33° C | 60% | 1022.4 hPa | 0 mm | - | 348 W/m² | - |
| 1777730104 | 12.78° C | 60% | 1022.3 hPa | 0 mm | - | 317 W/m² | - |
| 1777729801 | 12.78° C | 62% | 1022.5 hPa | 0 mm | - | 299 W/m² | - |
| 1777729498 | 12.78° C | 61% | 1022.2 hPa | 0 mm | - | 288 W/m² | - |
| 1777729195 | 12.78° C | 60% | 1022.3 hPa | 0 mm | - | 269 W/m² | - |
| 1777728891 | 13.33° C | 58% | 1022 hPa | 0 mm | - | 265 W/m² | - |
| 1777728588 | 12.78° C | 58% | 1022.2 hPa | 0 mm | - | 248 W/m² | - |
| 1777728286 | 12.78° C | 58% | 1021.9 hPa | 0 mm | - | 228 W/m² | - |
| 1777727983 | 13.33° C | 58% | 1021.8 hPa | 0 mm | - | 213 W/m² | - |
| 1777727679 | 12.78° C | 59% | 1021.8 hPa | 0 mm | - | 200 W/m² | - |
| 1777727377 | 12.78° C | 60% | 1021.4 hPa | 0 mm | - | 190 W/m² | - |
| 1777727074 | 12.22° C | 59% | 1021.7 hPa | 0 mm | - | 182 W/m² | - |
| 1777726772 | 12.22° C | 60% | 1021.6 hPa | 0 mm | - | 172 W/m² | - |
| 1777726468 | 11.67° C | 62% | 1021.6 hPa | 0 mm | - | 146 W/m² | - |
| 1777726165 | 11.11° C | 61% | 1021.6 hPa | 0 mm | - | 143 W/m² | - |
| 1777725862 | 10.56° C | 63% | 1021.5 hPa | 0 mm | - | 121 W/m² | - |
* Rain latest hour (hover to see other rain measurements)
** Current wind speed in m/s (hover to see current wind gust speed)